Regional Weather Roundup
Issued by NWS Charleston, SC

Current Version | Previous Version | Text Only | Print | Product List | Glossary Off
Versions: 1 2 3 4 5 6 7 8 9 10 11 12 13 14 15 16 17 18 19 20 21 22 23 24 25 26 27 28 29 30 31 32 33 34 35 36 37 38 39 40 41 42 43 44 45 46 47 48 49 50

000
ASUS42 KCHS 060512
RWRCHS
REGIONAL WEATHER ROUNDUP
NATIONAL WEATHER SERVICE CHARLESTON SC
100 AM EDT MON JUL 06 2015

NOTE: "FAIR" INDICATES FEW OR NO CLOUDS BELOW 12,000 FEET WITH NO
SIGNIFICANT WEATHER AND/OR OBSTRUCTIONS TO VISIBILITY.

NOT ALL STATIONS ARE QUALITY CONTROLLED BY THE NATIONAL
WEATHER SERVICE. USE DATA WITH CAUTION...ESPECIALLY
DEWPOINT OBSERVATIONS.

SCZ027-030-031-034>040-042>050-060600-
...SOUTHEAST SOUTH CAROLINA...

CITY           SKY/WX    TMP DP  RH WIND       PRES   REMARKS
N CHARLESTON   PTCLDY    74  70  87 SW3       30.12S
WATERFRONT PAR   N/A     77  72  84 VRB2      30.09S
MOUNT PLEASANT FAIR      75  72  88 CALM      30.12S
JOHNS ISLAND   FAIR      73  72  94 CALM      30.12S
PINOPOLIS      NOT AVBL
MONCKS CORNER  FAIR      73  70  88 CALM      30.12S FOG
SUMMERVILLE    FAIR      72  72 100 CALM      30.13S
BEAUFORT MCAS  CLEAR     71  69  93 SW6       30.13S
BEAUFORT ARPT  FAIR      72  72 100 SW3       30.13R
HILTON HEAD IS CLEAR     73  72  94 SW3       30.14S
WALTERBORO     PTCLDY    70  70 100 CALM      30.14R
ALLENDALE      FOG       72  72 100 CALM      30.12S VSB 1/2

...SOUTHERN MIDLANDS AND PEE DEE...

CITY           SKY/WX    TMP DP  RH WIND       PRES   REMARKS
GEORGETOWN     NOT AVBL
KINGSTREE      NOT AVBL
ORANGEBURG     CLOUDY    71  69  93 S6        30.12S FOG
BARNWELL       MOCLDY    72  72 100 SE5       30.12S
AIKEN          NOT AVBL
MANNING        HVY RAIN  72  70  94 CALM      30.12R
COLUMBIA       PTCLDY    72  69  90 SE3       30.09S
SUMTER         PTCLDY    72  69  89 S5        30.09S
FLORENCE       PTCLDY    75  73  93 CALM      30.10F
MYRTLE BEACH   MOCLDY    81  73  78 S9        30.12F
N MYRTLE BEACH CLOUDY    81  76  84 S10       30.11S

$$

GAZ063-065-086>088-099>101-113>116-118-119-134>141-150-060600-
...SOUTHEAST GEORGIA...

CITY           SKY/WX    TMP DP  RH WIND       PRES   REMARKS
SAVANNAH ARPT  PTCLDY    70  68  93 S3        30.14S
HUNTER AAF     CLEAR     70  70 100 SW3       30.11F
FORT STEWART   CLOUDY    72  68  88 SW5       30.12R
STATESBORO     NOT AVBL
SYLVANIA       PTCLDY    72  72 100 CALM      30.14R
CLAXTON        CLOUDY    72  72 100 W3        30.13S

...CSRA...CENTRAL AND FAR SOUTHEAST GEORGIA...

CITY           SKY/WX    TMP DP  RH WIND       PRES   REMARKS
THOMSON        CLEAR     75  72  91 SW3       30.15F
AUGUSTA-BUSH   CLEAR     72  71  97 CALM      30.09F
AUGUSTA-DANIEL CLEAR     75  71  87 SW6       30.11S
SWAINSBORO     CLOUDY   N/A N/A N/A SW3       30.14R
VIDALIA        CLOUDY    73  72  94 SW6       30.13F
EASTMAN        FAIR      73  73 100 CALM      30.16R
HAZLEHURST     FAIR      74  74 100 SW3       30.13S
ALMA           CLOUDY    73  71  93 SW6       30.14S
WAYCROSS       CLOUDY    74  74 100 W6        30.15S
JESUP          MOCLDY    72  72 100 CALM      30.14S
BAXLEY         CLOUDY    73  72  94 CALM      30.14R
BRUNSWICK      MOCLDY    72  70  94 S3        30.16R
SAINT SIMONS   CLOUDY    72  70  93 SW6       30.15R

$$

SCZ027-028-034-036>038-045-046-048>050-GAZ119-141-060600-
...LAKE AND SUPPLEMENTAL COASTAL OBSERVATIONS...

STATION/POSITION TIME  TEMP    WIND        PRES    WAVE   SWELL
                       AIR SEA DIR/SP/G            HT/PER HT/PER/DIR
                 (UTC) (F)     (DEG/KT/KT) (MB)    (FT/S) (FT/S/D)
UPR LAKE MARION  NOT AVBL
WINYAH BAY       NOT AVBL
LAKE MURRAY      0400   76     220/  8/ 11 1018.6S
ACE BASIN NERRS  NOT AVBL
FORT PULASKI     0400   74 83  250/  5/  7 1020.8R
SAPELO ISLAND    0400   73     250/  8     1021.0R

$$

ANZ835-935-AMZ111-154-330-350-352-354-370-450-454-472-060600-
...C-MAN AND BUOY OBSERVATIONS...

STATION/POSITION TIME  TEMP    WIND        PRES    WAVE   SWELL
                       AIR SEA DIR/SP/G            HT/PER HT/PER/DIR
                 (UTC) (F)     (DEG/KT/KT) (MB)    (FT/S) (FT/S/D)
BUOY 41004       0450   81 82  210/ 10/ 12 1019.6R   3/ 8   2/ 8
BUOY 41008       0450   77 78  240/ 10/ 12 1020.5R   2/ 9   2/120/ 9
FOLLY BEACH CMAN 0400   78     240/  3/  4 1020.1R
CAPERS NEARSHORE 0408   81     240/ 10/ 14 1019.9R
FRIPP NEARSHORE  0400   80     250/ 10/ 12 1019.4R


STATION/POSITION TIME  TEMP    WIND        PRES    WAVE   SWELL
                       AIR SEA DIR/SP/G            HT/PER HT/PER/DIR
                 (UTC) (F)     (DEG/KT/KT) (MB)    (FT/S) (FT/S/D)
5E ST. MARYS GA  0421      78                N/A     2/ 9
FRYING PAN BUOY  0450   81 79  180/ 10/ 12 1020.3F   3/ 5   2/170/ 5
BUOY 41025       0450   81 81  220/ 16/ 17 1019.8F   3/ 8   2/130/ 8
CAPE LOOKOUT NC  0400   79     200/ 11/ 13 1019.9F
BUOY 41002       0450   78 80  200/ 10/ 12 1023.1F   3/ 9   3/130/ 9
BUOY 41010       0420   82 84  150/ 12/ 16 1021.8F
ST AUGUSTINE FL  0500   72 71  280/  4/  5 1021.8R


$$


USA.gov is the U.S. government's official web portal to all federal, state and local government web resources and services.